Location: Unspecified
(0.0000°N, 0.0000°E)
Time: 11:20:47
(UTC+00:00)

A-11 Canister half - Pass Details

Date: 24 November 2019
Orbit: 1526 x 1683 km, 47.3° (Epoch: 13 December)

Event Time Altitude Azimuth Distance (km) Brightness Sun altitude
Rises 19:15:26 0° 318° (NW) 4,708 11.8 -20.7°
Reaches altitude 10° 19:18:30 10° 317° (NW) 3,712 11.2 -21.4°
Maximum altitude 19:27:51 81° 231° (SW) 1,542 9.0 -23.6°
Drops below altitude 10° 19:37:10 10° 144° (SE) 3,697 10.9 -25.7°
Sets 19:40:13 0° 143° (SE) 4,689 11.4 -26.4°
